Location: LC-39B
(28.6273°N, 80.6211°W)
Time: 16:21:31
(UTC+00:00)

ISS - Visible Passes

Search period start: 23 February 2017 00:00
Search period end: 05 March 2017 00:00
Orbit: 399 x 408 km, 51.6° (Epoch: 24 February)

Date Brightness Start Highest point End Pass type
(mag) Time Alt. Az. Time Alt. Az. Time Alt. Az.
25 Feb -0.2 11:20:49 10° SSE 11:22:45 15° SE 11:24:41 10° E visible
27 Feb -2.1 11:10:45 10° SSW 11:13:54 45° SE 11:17:03 10° NE visible
28 Feb -0.7 10:19:03 10° S 10:21:27 19° SE 10:23:52 10° E visible
01 Mar -3.1 11:02:10 12° WSW 11:05:07 52° NW 11:08:21 10° NNE visible
02 Mar -2.9 10:12:36 61° SE 10:12:36 61° SE 10:15:48 10° NE visible
03 Mar 0.3 09:22:48 10° ENE 09:22:48 10° ENE 09:22:48 10° ENE visible
03 Mar -1.7 10:55:28 17° WNW 10:56:28 19° NW 10:58:56 10° N visible
04 Mar -1.3 10:05:27 21° NNE 10:05:27 21° NNE 10:06:52 10° NNE visible
